KG5EO Weather Reports


Display with metric or nautical units.
time (UTC)temp
F
wind
direction
speed
MPH
gust
MPH
rain 1hr
in
rain 24hr
in
rain mn
in
humidity
%
barometer
mb
20260502140119 67 277 0.0 0.0 0.00 0.00 0.00 43 41.0
20260502130617 58 277 0.0 0.0 0.00 0.00 0.00 49 41.0
20260502130117 58 277 0.0 2.0 0.00 0.00 0.00 54 41.0
20260502123618 58 274 0.0 0.0 0.00 0.00 0.00 49 41.0
20260502123116 58 274 0.0 0.0 0.00 0.00 0.00 48 41.0
20260502122616 58 274 0.0 0.0 0.00 0.00 0.00 49 41.0
20260502122117 58 274 0.0 0.0 0.00 0.00 0.00 46 41.0
20260502121616 59 274 0.0 0.0 0.00 0.00 0.00 47 41.0
20260502121117 59 274 0.0 0.0 0.00 0.00 0.00 45 41.0
20260502120616 59 274 0.0 0.0 0.00 0.00 0.00 46 41.0
20260502120115 60 274 0.0 0.0 0.00 0.00 0.00 45 41.0
20260502115616 60 274 0.0 0.0 0.00 0.00 0.00 45 41.0
20260502115115 60 274 0.0 0.0 0.00 0.00 0.00 45 41.0
20260502114615 61 274 0.0 1.0 0.00 0.00 0.00 40 41.0
20260502114114 61 274 0.0 1.0 0.00 0.00 0.00 43 41.0
20260502113614 60 207 0.0 0.0 0.00 0.00 0.00 41 41.0
20260502113114 60 205 0.0 0.0 0.00 0.00 0.00 41 41.0
20260502112614 59 205 0.0 0.0 0.00 0.00 0.00 43 41.0
20260502112114 59 205 0.0 1.0 0.00 0.00 0.00 45 41.0
20260502111614 60 247 0.0 1.0 0.00 0.00 0.00 48 41.0
20260502111115 60 247 0.0 0.0 0.00 0.00 0.00 41 41.0
20260502110614 60 247 0.0 0.0 0.00 0.00 0.00 42 41.0
20260502110113 60 247 0.0 0.0 0.00 0.00 0.00 42 41.0
20260502105614 61 246 0.0 0.0 0.00 0.00 0.00 42 41.0
20260502105114 61 303 0.0 1.0 0.00 0.00 0.00 41 41.0
20260502104613 61 302 0.0 1.0 0.00 0.00 0.00 39 41.0
20260502104113 61 307 0.0 1.0 0.00 0.00 0.00 38 41.0
20260502103612 61 239 0.0 0.0 0.00 0.00 0.00 39 41.0
20260502103112 61 238 0.0 0.0 0.00 0.00 0.00 38 40.9
20260502102612 62 238 0.0 1.0 0.00 0.00 0.00 39 41.0
20260502102112 62 239 0.0 1.0 0.00 0.00 0.00 37 41.0
20260502101612 63 238 0.0 0.0 0.00 0.00 0.00 37 40.9
20260502101112 63 238 0.0 1.0 0.00 0.00 0.00 34 40.9
20260502100612 63 238 0.0 1.0 0.00 0.00 0.00 35 40.9
20260502100111 63 228 0.0 0.0 0.00 0.00 0.00 34 40.9
20260502091110 66 326 0.0 3.0 0.00 0.00 0.00 32 40.9
20260502090611 65 46 0.0 4.0 0.00 0.00 0.00 33 40.9
20260502090110 65 79 0.0 4.0 0.00 0.00 0.00 33 40.9
20260502080108 66 124 0.0 1.0 0.00 0.00 0.00 38 40.9
20260502071106 69 124 0.0 0.0 0.00 0.00 0.00 29 40.9
20260502070606 69 124 0.0 1.0 0.00 0.00 0.00 28 40.9
20260502070106 69 124 0.0 1.0 0.00 0.00 0.00 29 40.9
20260502065606 69 174 0.0 0.0 0.00 0.00 0.00 28 40.9
20260502065106 68 174 0.0 0.0 0.00 0.00 0.00 29 40.9
20260502064607 68 174 0.0 0.0 0.00 0.00 0.00 29 40.9
20260502064106 68 174 0.0 0.0 0.00 0.00 0.00 30 40.9
20260502063607 69 174 0.0 0.0 0.00 0.00 0.00 29 40.9
20260502063105 69 174 0.0 0.0 0.00 0.00 0.00 32 40.9
20260502062605 70 174 0.0 0.0 0.00 0.00 0.00 31 40.9
20260502062105 70 174 0.0 0.0 0.00 0.00 0.00 30 40.9
20260502061605 71 174 0.0 0.0 0.00 0.00 0.00 29 40.9
20260502061105 71 174 0.0 1.0 0.00 0.00 0.00 31 40.9
20260502060605 71 181 0.0 1.0 0.00 0.00 0.00 30 40.9
20260502060104 71 209 0.0 1.0 0.00 0.00 0.00 31 40.9
20260502055605 71 225 0.0 1.0 0.00 0.00 0.00 32 40.9
20260502055104 71 240 0.0 1.0 0.00 0.00 0.00 31 40.9
20260502054604 71 178 0.0 2.0 0.00 0.00 0.00 30 40.9
20260502054105 71 178 0.0 2.0 0.00 0.00 0.00 31 40.9
20260502053604 71 152 0.0 2.0 0.00 0.00 0.00 30 40.9
20260502053104 70 172 0.0 1.0 0.00 0.00 0.00 30 40.9
20260502052605 70 178 0.0 0.0 0.00 0.00 0.00 33 40.9
20260502052103 70 172 0.0 0.0 0.00 0.00 0.00 33 40.9
20260502051604 70 172 0.0 0.0 0.00 0.00 0.00 31 40.9
20260502051103 70 172 0.0 0.0 0.00 0.00 0.00 31 40.9
20260502050603 70 196 0.0 0.0 0.00 0.00 0.00 34 40.9
20260502045602 70 196 0.0 0.0 0.00 0.00 0.00 30 40.9
20260502045102 71 196 0.0 0.0 0.00 0.00 0.00 34 40.9
20260502044602 72 196 0.0 0.0 0.00 0.00 0.00 35 40.9
20260502044104 72 196 0.0 0.0 0.00 0.00 0.00 32 40.9
20260502043602 72 196 0.0 0.0 0.00 0.00 0.00 28 40.9
20260502043101 72 196 0.0 0.0 0.00 0.00 0.00 28 40.9
20260502042602 72 196 0.0 0.0 0.00 0.00 0.00 29 40.9
20260502042101 72 196 0.0 0.0 0.00 0.00 0.00 35 40.9
20260502041603 73 210 0.0 0.0 0.00 0.00 0.00 31 40.9
20260502041102 73 279 0.0 0.0 0.00 0.00 0.00 29 40.9
20260502040601 73 279 0.0 0.0 0.00 0.00 0.00 26 40.9
20260502040101 73 279 0.0 0.0 0.00 0.00 0.00 24 40.9
20260502035601 74 279 0.0 0.0 0.00 0.00 0.00 24 40.9
20260502035101 74 279 0.0 0.0 0.00 0.00 0.00 24 40.9
20260502034600 75 279 0.0 0.0 0.00 0.00 0.00 24 40.9
20260502034100 75 279 0.0 0.0 0.00 0.00 0.00 23 40.9
20260502033600 76 279 0.0 0.0 0.00 0.00 0.00 24 40.9
20260502033101 76 279 0.0 0.0 0.00 0.00 0.00 23 40.9
20260502032600 77 279 0.0 0.0 0.00 0.00 0.00 23 40.9
20260502032059 77 279 0.0 0.0 0.00 0.00 0.00 22 40.9
20260502031600 78 279 0.0 0.0 0.00 0.00 0.00 21 40.9
20260502031059 78 279 0.0 0.0 0.00 0.00 0.00 20 40.8
20260502030600 79 279 0.0 0.0 0.00 0.00 0.00 19 40.8
20260502030100 80 279 0.0 0.0 0.00 0.00 0.00 19 40.8
20260502025559 81 279 0.0 0.0 0.00 0.00 0.00 18 40.8
20260502025059 82 279 0.0 1.0 0.00 0.00 0.00 18 40.8
20260502024558 82 278 0.0 1.0 0.00 0.00 0.00 18 40.8
20260502024059 83 278 0.0 1.0 0.00 0.00 0.00 17 40.8
20260502023558 84 278 0.0 1.0 0.00 0.00 0.00 16 40.8
20260502023059 84 273 0.0 1.0 0.00 0.00 0.00 15 40.8
20260502022558 85 281 0.0 2.0 0.00 0.00 0.00 15 40.8
20260502022059 85 281 0.0 5.0 0.00 0.00 0.00 15 40.8
20260502021558 86 280 0.0 5.0 0.00 0.00 0.00 14 40.8
20260502021057 86 257 2.0 5.0 0.00 0.00 0.00 14 40.8
20260502020558 86 295 0.0 5.0 0.00 0.00 0.00 14 40.8
20260502020059 86 276 1.0 3.0 0.00 0.00 0.00 15 40.8
20260502015557 87 302 0.0 3.0 0.00 0.00 0.00 15 40.8
20260502015057 87 285 1.0 4.0 0.00 0.00 0.00 16 40.8
20260502014557 88 277 0.0 4.0 0.00 0.00 0.00 15 40.8
20260502014058 88 316 1.0 4.0 0.00 0.00 0.00 14 40.8
20260502013556 89 276 0.0 5.0 0.00 0.00 0.00 15 40.8
20260502013056 89 242 0.0 5.0 0.00 0.00 0.00 15 40.8
20260502012558 89 282 4.0 5.0 0.00 0.00 0.00 15 40.8
20260502012056 89 288 2.0 6.0 0.00 0.00 0.00 16 40.8
20260502011556 89 286 3.0 6.0 0.00 0.00 0.00 16 40.8
20260502011057 89 248 2.0 8.0 0.00 0.00 0.00 16 40.8
20260502010556 89 343 5.0 8.0 0.00 0.00 0.00 16 40.8
20260502010126 89 268 3.0 7.0 0.00 0.00 0.00 17 40.8
20260502005555 89 273 0.0 10.0 0.00 0.00 0.00 16 40.8
20260502005055 89 266 2.0 10.0 0.00 0.00 0.00 16 40.8
20260502004555 90 255 5.0 7.0 0.00 0.00 0.00 16 40.8
20260502004055 90 232 0.0 9.0 0.00 0.00 0.00 16 40.8
20260502003555 89 304 1.0 9.0 0.00 0.00 0.00 16 40.8
20260502003056 90 283 4.0 7.0 0.00 0.00 0.00 17 40.8
20260502002554 90 270 1.0 5.0 0.00 0.00 0.00 17 40.8
20260502002054 90 245 1.0 6.0 0.00 0.00 0.00 18 40.8
20260502001554 89 276 0.0 7.0 0.00 0.00 0.00 21 40.8
20260502001054 89 286 3.0 7.0 0.00 0.00 0.00 18 40.8
20260502000554 89 256 4.0 7.0 0.00 0.00 0.00 18 40.8
20260502000125 89 217 1.0 7.0 0.00 0.00 0.00 17 40.8
20260501235553 89 206 0.0 4.0 0.00 0.00 0.00 19 40.8
20260501235054 89 299 2.0 8.0 0.00 0.00 0.00 17 40.8
20260501234623 89 254 3.0 10.0 0.00 0.00 0.00 17 40.8
20260501234053 89 285 8.0 10.0 0.00 0.00 0.00 16 40.8
20260501233553 90 246 2.0 8.0 0.00 0.00 0.00 18 40.8
20260501233054 89 11 4.0 8.0 0.00 0.00 0.00 17 40.8
20260501232623 90 271 0.0 9.0 0.00 0.00 0.00 20 40.8
20260501232052 89 270 0.0 9.0 0.00 0.00 0.00 18 40.8
20260501231553 89 300 3.0 8.0 0.00 0.00 0.00 17 40.8
20260501231122 89 285 2.0 10.0 0.00 0.00 0.00 18 40.8
20260501230553 89 268 6.0 10.0 0.00 0.00 0.00 18 40.8
20260501230122 89 257 1.0 6.0 0.00 0.00 0.00 19 40.8
20260501225554 89 262 4.0 7.0 0.00 0.00 0.00 19 40.8
20260501225121 89 254 3.0 7.0 0.00 0.00 0.00 20 40.8
20260501224553 89 259 1.0 7.0 0.00 0.00 0.00 19 40.8
20260501224052 88 339 3.0 9.0 0.00 0.00 0.00 18 40.8
20260501223552 88 272 2.0 9.0 0.00 0.00 0.00 21 40.8
20260501223121 88 221 1.0 6.0 0.00 0.00 0.00 21 40.8
20260501222551 88 265 4.0 6.0 0.00 0.00 0.00 18 40.8
20260501222051 89 278 3.0 9.0 0.00 0.00 0.00 20 40.8
20260501221621 89 247 2.0 9.0 0.00 0.00 0.00 18 40.8
20260501221120 89 267 0.0 7.0 0.00 0.00 0.00 19 40.9
20260501220620 89 266 4.0 7.0 0.00 0.00 0.00 19 40.9
20260501220120 88 293 1.0 5.0 0.00 0.00 0.00 18 40.8
20260501215620 88 217 2.0 8.0 0.00 0.00 0.00 19 40.9
20260501215120 88 252 1.0 8.0 0.00 0.00 0.00 17 40.9
20260501214622 89 288 5.0 8.0 0.00 0.00 0.00 18 40.9
20260501214120 88 250 2.0 9.0 0.00 0.00 0.00 18 40.9
20260501213619 89 260 3.0 10.0 0.00 0.00 0.00 19 40.9
20260501213120 88 14 1.0 12.0 0.00 0.00 0.00 18 40.9
20260501212619 88 288 1.0 12.0 0.00 0.00 0.00 19 40.9
20260501212119 88 252 0.0 9.0 0.00 0.00 0.00 21 40.9
20260501211619 88 50 1.0 9.0 0.00 0.00 0.00 19 40.9
20260501211119 88 297 4.0 7.0 0.00 0.00 0.00 20 40.9
20260501210620 88 245 2.0 9.0 0.00 0.00 0.00 19 40.9
20260501210118 88 250 2.0 9.0 0.00 0.00 0.00 21 40.9
20260501205618 88 309 2.0 4.0 0.00 0.00 0.00 19 40.9
20260501205118 87 166 2.0 6.0 0.00 0.00 0.00 23 40.9
20260501204618 87 228 1.0 6.0 0.00 0.00 0.00 22 40.9
20260501204118 87 318 2.0 7.0 0.00 0.00 0.00 20 40.9
20260501203617 87 245 0.0 7.0 0.00 0.00 0.00 21 40.9
20260501203118 86 259 2.0 7.0 0.00 0.00 0.00 24 40.9
20260501202618 87 262 5.0 7.0 0.00 0.00 0.00 23 40.9
20260501202117 86 272 2.0 4.0 0.00 0.00 0.00 24 40.9
20260501201617 86 169 2.0 5.0 0.00 0.00 0.00 25 40.9
20260501201117 86 233 2.0 5.0 0.00 0.00 0.00 24 40.9
20260501200616 86 251 2.0 6.0 0.00 0.00 0.00 23 40.9
20260501200116 85 259 1.0 7.0 0.00 0.00 0.00 24 40.9
20260501195617 86 264 2.0 7.0 0.00 0.00 0.00 23 40.9
20260501195117 85 251 4.0 7.0 0.00 0.00 0.00 24 40.9
20260501194616 85 293 2.0 6.0 0.00 0.00 0.00 25 40.9
20260501194116 85 261 1.0 6.0 0.00 0.00 0.00 27 40.9
20260501193616 85 173 5.0 6.0 0.00 0.00 0.00 28 40.9
20260501193115 84 295 1.0 4.0 0.00 0.00 0.00 26 40.9
20260501192615 84 226 3.0 4.0 0.00 0.00 0.00 30 40.9
20260501192116 83 133 1.0 5.0 0.00 0.00 0.00 26 40.9
20260501191615 84 249 2.0 5.0 0.00 0.00 0.00 26 40.9
20260501191115 84 107 0.0 5.0 0.00 0.00 0.00 25 40.9
20260501190615 84 287 4.0 5.0 0.00 0.00 0.00 24 40.9
20260501190115 84 224 1.0 5.0 0.00 0.00 0.00 24 40.9
20260501185615 83 217 1.0 5.0 0.00 0.00 0.00 27 40.9
20260501185114 83 169 2.0 3.0 0.00 0.00 0.00 23 41.0
20260501184614 83 162 0.0 4.0 0.00 0.00 0.00 26 41.0
20260501184114 83 239 2.0 9.0 0.00 0.00 0.00 25 41.0
20260501183614 83 255 2.0 9.0 0.00 0.00 0.00 24 41.0
20260501183115 82 18 2.0 4.0 0.00 0.00 0.00 25 41.0
20260501182614 82 42 2.0 6.0 0.00 0.00 0.00 26 41.0
20260501182113 81 271 3.0 6.0 0.00 0.00 0.00 26 41.0
20260501181614 82 247 1.0 6.0 0.00 0.00 0.00 26 41.0
20260501181113 82 305 3.0 6.0 0.00 0.00 0.00 27 41.0
20260501180614 81 58 0.0 6.0 0.00 0.00 0.00 29 41.0
20260501180114 81 335 1.0 5.0 0.00 0.00 0.00 27 41.0
20260501175613 81 244 3.0 5.0 0.00 0.00 0.00 27 41.0
20260501175114 81 358 4.0 5.0 0.00 0.00 0.00 28 41.0
20260501174612 81 274 2.0 7.0 0.00 0.00 0.00 27 41.0
20260501174128 80 255 2.0 7.0 0.00 0.00 0.00 29 41.0
20260501173613 81 242 2.0 4.0 0.00 0.00 0.00 30 41.0
20260501173112 80 122 0.0 6.0 0.00 0.00 0.00 30 41.0
20260501172613 80 110 2.0 7.0 0.00 0.00 0.00 30 41.0
20260501172112 80 282 4.0 7.0 0.00 0.00 0.00 30 41.0
20260501171611 80 158 0.0 3.0 0.00 0.00 0.00 34 41.0
20260501171111 80 288 0.0 4.0 0.00 0.00 0.00 32 41.0
20260501170611 80 266 1.0 4.0 0.00 0.00 0.00 31 41.0
20260501170111 80 218 1.0 4.0 0.00 0.00 0.00 30 41.0
20260501165611 80 94 0.0 3.0 0.00 0.00 0.00 30 41.0
20260501165111 79 63 1.0 3.0 0.00 0.00 0.00 31 41.0
20260501164610 79 13 1.0 5.0 0.00 0.00 0.00 32 41.0
20260501164110 80 282 2.0 5.0 0.00 0.00 0.00 32 41.0
20260501163612 79 9 3.0 4.0 0.00 0.00 0.00 32 41.0
20260501163110 78 264 1.0 4.0 0.00 0.00 0.00 31 41.0
20260501162610 78 267 0.0 5.0 0.00 0.00 0.00 33 41.0
20260501162111 77 288 3.0 5.0 0.00 0.00 0.00 32 41.0
20260501161610 77 288 1.0 4.0 0.00 0.00 0.00 33 41.0
20260501161110 77 269 4.0 4.0 0.00 0.00 0.00 33 41.0
20260501160609 77 276 0.0 3.0 0.00 0.00 0.00 32 41.0
20260501160125 77 157 0.0 1.0 0.00 0.00 0.00 35 41.0
20260501155610 76 108 1.0 3.0 0.00 0.00 0.00 35 41.0
20260501155111 76 244 0.0 3.0 0.00 0.00 0.00 36 41.0
20260501154609 76 49 1.0 1.0 0.00 0.00 0.00 35 41.0
20260501154109 76 266 0.0 1.0 0.00 0.00 0.00 36 41.0
20260501153609 76 266 0.0 1.0 0.00 0.00 0.00 36 41.0
20260501153108 76 132 0.0 1.0 0.00 0.00 0.00 37 41.0
20260501152609 75 231 0.0 1.0 0.00 0.00 0.00 38 41.0
20260501152108 75 214 0.0 1.0 0.00 0.00 0.00 38 41.0
20260501151608 75 209 0.0 1.0 0.00 0.00 0.00 38 41.0
20260501151108 74 209 0.0 2.0 0.00 0.00 0.00 40 41.0
20260501150608 74 152 0.0 2.0 0.00 0.00 0.00 40 41.0
20260501150108 73 146 0.0 2.0 0.00 0.00 0.00 42 41.0
20260501145608 72 156 0.0 4.0 0.00 0.00 0.00 44 41.0
20260501145107 71 186 0.0 4.0 0.00 0.00 0.00 44 41.0
20260501144607 71 144 0.0 3.0 0.00 0.00 0.00 44 41.0
20260501144107 70 159 1.0 3.0 0.00 0.00 0.00 46 41.0
20260501143608 69 129 0.0 3.0 0.00 0.00 0.00 47 41.0
20260501143108 69 128 1.0 4.0 0.00 0.00 0.00 47 41.0
20260501142606 68 158 0.0 5.0 0.00 0.00 0.00 48 41.0